Total_Precipitation_Accumulation
0.10 0.10 0.09 0.08 0.08 0.08 0.07 0.06 0.04 0.03 0.02 0.01 0.01 0.01 0.00 0.00 0.00 0.00 0.00 0.00 0.00 0.00 0.00 0.01 0.03 0.08 0.16 0.42 0.52 1.78 5.75 4.49 2.50 1.02 2.58 1.43 1.30 1.12 0.87 0.37 0.34 0.31 0.11 0.02 0.02
0.10 0.09 0.08 0.07 0.07 0.08 0.07 0.05 0.04 0.03 0.02 0.02 0.02 0.00 0.00 0.01 0.00 0.00 0.00 0.00 0.00 0.00 0.00 0.01 0.03 0.07 0.31 0.36 0.49 2.64 4.64 2.77 1.25 0.56 1.10 2.06 1.42 1.23 0.97 0.75 0.51 0.57 0.21 0.03 0.03
0.10 0.09 0.08 0.07 0.08 0.08 0.06 0.03 0.04 0.02 0.02 0.02 0.01 0.00 0.00 0.00 0.00 0.00 0.00 0.00 0.00 0.00 0.00 0.07 0.06 0.23 0.55 0.34 0.49 2.22 3.84 2.00 0.75 0.50 0.83 1.34 1.07 0.74 1.06 1.00 0.45 0.29 0.10 0.01 0.01
0.10 0.08 0.08 0.07 0.07 0.06 0.04 0.03 0.03 0.03 0.02 0.01 0.01 0.00 0.00 0.00 0.00 0.00 0.00 0.00 0.00 0.00 0.00 0.23 0.16 0.38 0.64 0.27 0.44 1.16 1.00 1.59 1.35 0.92 0.50 1.03 2.21 0.72 1.71 1.80 0.50 0.30 0.05 0.00 0.01
0.08 0.06 0.06 0.05 0.05 0.04 0.03 0.03 0.02 0.03 0.02 0.01 0.01 0.01 0.00 0.00 0.00 0.00 0.00 0.00 0.00 0.00 0.00 0.18 0.08 0.40 0.40 0.39 0.56 0.74 0.90 1.06 1.21 0.53 0.60 0.74 1.20 0.91 1.14 0.89 0.45 0.29 0.05 0.01 0.01
0.08 0.06 0.05 0.05 0.04 0.03 0.03 0.03 0.03 0.03 0.02 0.01 0.02 0.01 0.00 0.00 0.00 0.00 0.00 0.00 0.00 0.00 0.00 0.07 0.06 0.18 0.30 0.28 0.63 0.58 0.83 1.23 1.63 1.22 0.92 0.84 0.98 0.68 0.83 0.69 0.45 0.31 0.04 0.02 0.02
0.08 0.07 0.06 0.05 0.03 0.02 0.02 0.03 0.02 0.02 0.02 0.03 0.03 0.01 0.00 0.00 0.00 0.00 0.00 0.00 0.00 0.00 0.00 0.01 0.01 0.04 0.15 0.32 0.43 0.42 0.85 1.35 1.84 2.10 1.95 1.53 3.08 1.43 0.79 0.62 0.45 0.24 0.13 0.05 0.10
0.07 0.06 0.04 0.03 0.03 0.01 0.01 0.01 0.01 0.01 0.01 0.02 0.02 0.00 0.00 0.00 0.00 0.00 0.00 0.00 0.00 0.00 0.00 0.01 0.00 0.01 0.22 0.17 0.34 0.72 1.27 2.84 2.84 2.25 2.64 2.21 4.59 2.73 1.56 1.83 0.53 0.47 0.46 0.18 0.79
0.07 0.05 0.04 0.03 0.02 0.01 0.00 0.00 0.00 0.00 0.00 0.00 0.00 0.00 0.00 0.00 0.00 0.00 0.00 0.00 0.00 0.00 0.00 0.00 0.00 0.03 0.15 0.43 0.52 1.05 1.67 2.03 3.41 2.86 3.17 2.57 4.33 3.11 1.45 1.17 0.87 0.36 0.89 0.31 0.87
0.06 0.05 0.03 0.02 0.02 0.01 0.00 0.00 0.00 0.00 0.00 0.00 0.00 0.00 0.00 0.00 0.00 0.00 0.00 0.00 0.00 0.00 0.00 0.00 0.00 0.03 0.09 0.49 2.27 1.43 1.62 1.63 2.15 3.43 3.18 2.82 3.18 2.96 1.75 1.40 1.21 0.54 0.54 0.50 0.53
0.06 0.05 0.04 0.02 0.01 0.03 0.01 0.01 0.00 0.00 0.00 0.00 0.00 0.00 0.00 0.00 0.00 0.00 0.00 0.00 0.00 0.00 0.00 0.00 0.00 0.03 0.11 0.32 0.59 0.56 0.92 1.60 1.83 2.31 3.54 3.09 2.37 2.98 1.79 1.15 1.42 0.99 0.68 0.79 0.82
0.06 0.05 0.04 0.02 0.01 0.01 0.00 0.00 0.00 0.00 0.00 0.00 0.00 0.00 0.00 0.00 0.00 0.00 0.00 0.00 0.00 0.00 0.00 0.00 0.01 0.04 0.05 0.06 0.08 0.20 0.61 1.68 1.72 2.24 2.14 2.88 2.12 2.26 2.33 1.24 0.93 1.00 0.96 1.15 1.15
0.05 0.06 0.04 0.01 0.01 0.01 0.00 0.00 0.00 0.00 0.00 0.00 0.00 0.00 0.00 0.00 0.00 0.00 0.00 0.00 0.00 0.00 0.00 0.00 0.02 0.03 0.04 0.06 0.12 0.26 0.36 1.19 2.09 2.00 2.15 1.90 2.63 2.03 2.06 2.04 1.17 1.11 0.73 0.68 0.76
0.05 0.04 0.04 0.01 0.00 0.00 0.00 0.00 0.00 0.00 0.00 0.00 0.00 0.00 0.00 0.00 0.00 0.00 0.00 0.00 0.00 0.00 0.00 0.00 0.02 0.06 0.03 0.07 0.14 0.46 0.44 1.07 1.92 1.92 2.02 1.54 1.67 1.93 1.71 1.88 2.12 1.40 0.54 0.46 0.34
0.04 0.04 0.06 0.02 0.00 0.00 0.00 0.00 0.00 0.00 0.00 0.00 0.00 0.00 0.00 0.00 0.00 0.00 0.00 0.00 0.00 0.00 0.00 0.00 0.00 0.03 0.02 0.03 0.10 0.22 0.21 0.42 1.21 1.46 1.32 0.97 1.08 1.39 1.88 1.81 2.01 1.66 0.62 0.50 0.35
0.02 0.04 0.08 0.00 0.00 0.00 0.00 0.00 0.00 0.00 0.00 0.00 0.00 0.00 0.00 0.00 0.00 0.00 0.00 0.00 0.00 0.00 0.00 0.00 0.02 0.03 0.03 0.04 0.13 0.10 0.21 0.22 0.64 1.51 1.47 0.81 0.71 1.14 1.13 1.21 1.43 1.38 1.12 0.56 0.28
0.02 0.03 0.05 0.00 0.00 0.00 0.00 0.00 0.01 0.04 0.01 0.00 0.00 0.00 0.00 0.00 0.00 0.00 0.00 0.00 0.00 0.00 0.00 0.00 0.00 0.02 0.02 0.07 0.17 0.08 0.14 0.32 0.64 1.31 1.60 0.48 0.51 0.71 0.31 0.88 1.04 1.04 1.26 0.62 0.41
0.01 0.00 0.00 0.00 0.00 0.00 0.00 0.01 0.12 0.07 0.00 0.00 0.00 0.00 0.00 0.00 0.00 0.00 0.00 0.00 0.00 0.00 0.00 0.00 0.01 0.01 0.01 0.02 0.11 0.08 0.23 0.58 0.92 0.88 0.52 0.51 0.68 0.48 0.26 0.39 0.44 0.51 0.53 0.90 0.63
0.00 0.00 0.00 0.00 0.00 0.00 0.00 0.06 0.08 0.06 0.00 0.00 0.00 0.00 0.00 0.00 0.00 0.00 0.00 0.00 0.00 0.00 0.00 0.00 0.01 0.00 0.00 0.00 0.02 0.09 0.27 0.43 0.29 0.27 0.34 0.86 0.90 0.47 0.40 0.43 0.20 0.24 0.33 0.48 0.76
0.00 0.00 0.00 0.00 0.00 0.00 0.00 0.01 0.00 0.00 0.00 0.00 0.00 0.00 0.01 0.00 0.00 0.00 0.00 0.00 0.00 0.01 0.00 0.00 0.01 0.01 0.01 0.03 0.04 0.05 0.13 0.13 0.14 0.33 1.08 0.59 1.23 1.28 0.58 0.41 0.32 0.31 0.31 0.29 0.75
0.00 0.00 0.00 0.00 0.00 0.01 0.02 0.01 0.00 0.00 0.00 0.00 0.01 0.01 0.01 0.01 0.00 0.01 0.00 0.01 0.01 0.04 0.01 0.00 0.01 0.01 0.01 0.01 0.03 0.04 0.03 0.07 0.11 0.11 0.58 0.32 0.87 1.33 1.08 0.23 0.17 0.27 0.32 0.36 0.72
0.00 0.00 0.00 0.00 0.00 0.01 0.02 0.00 0.00 0.00 0.00 0.00 0.00 0.01 0.03 0.03 0.03 0.04 0.07 0.09 0.03 0.03 0.04 0.03 0.05 0.02 0.02 0.01 0.01 0.02 0.02 0.04 0.07 0.22 0.19 0.17 0.36 0.47 0.48 0.25 0.39 0.41 0.41 0.79 1.10
0.00 0.01 0.02 0.01 0.00 0.01 0.00 0.00 0.00 0.00 0.01 0.02 0.02 0.01 0.04 0.09 0.14 0.15 0.13 0.06 0.06 0.04 0.10 0.12 0.09 0.03 0.03 0.02 0.01 0.03 0.04 0.04 0.05 0.15 0.48 0.44 0.58 0.52 0.36 0.37 0.56 0.19 0.57 0.85 0.53
0.03 0.01 0.09 0.01 0.00 0.01 0.01 0.01 0.00 0.02 0.04 0.04 0.05 0.01 0.00 0.03 0.07 0.21 0.21 0.09 0.05 0.04 0.17 0.26 0.11 0.03 0.06 0.09 0.08 0.11 0.06 0.04 0.06 0.32 0.40 0.32 0.25 0.59 0.15 0.13 0.26 0.31 0.39 0.55 0.80
0.09 0.08 0.36 0.03 0.00 0.04 0.09 0.05 0.06 0.04 0.04 0.07 0.29 0.17 0.06 0.08 0.06 0.21 0.24 0.09 0.10 0.11 0.18 0.19 0.09 0.02 0.05 0.12 0.05 0.07 0.17 0.23 0.13 0.12 0.08 0.09 0.06 0.14 0.37 0.31 0.37 0.43 0.43 0.50 0.45
0.13 0.24 0.44 0.09 0.04 0.03 0.06 0.11 0.10 0.05 0.06 0.08 0.26 0.21 0.22 0.26 0.14 0.19 0.20 0.27 0.20 0.13 0.16 0.09 0.07 0.04 0.02 0.03 0.15 0.09 0.02 0.03 0.07 0.04 0.06 0.07 0.13 0.44 0.84 1.02 0.41 0.16 0.15 0.46 0.86
0.18 0.21 0.46 0.27 0.12 0.15 0.11 0.16 0.14 0.24 0.24 0.21 0.40 0.39 0.18 0.16 0.13 0.09 0.12 0.17 0.17 0.15 0.18 0.17 0.20 0.18 0.06 0.05 0.13 0.19 0.07 0.05 0.04 0.06 0.08 0.13 0.08 0.23 0.67 1.05 0.47 0.31 0.49 0.87 1.69